, CA

(GMT )
Vandenberg AFB

Weather History for KVBG - January, 2013

Change the Weather History Date:

Wednesday, January 9, 2013

  Actual Average Record
Temperature  
Mean Temperature 50 °F -  
Max Temperature 55 °F 59 °F 75 °F (2007)
Min Temperature 44 °F 43 °F 37 °F (1997)
Degree Days  
Heating Degree Days 16    
Moisture  
Dew Point 46 °F    
Average Humidity 84    
Maximum Humidity 97    
Minimum Humidity 64    
Precipitation  
Precipitation 0.02 in - - ()
Sea Level Pressure  
Sea Level Pressure 30.07 in    
Wind  
Wind Speed 9 mph (NW)    
Max Wind Speed 23 mph    
Max Gust Speed 30 mph    
Visibility 7 miles    
Events Rain    
Averages and records for this station are not official NWS values.
T = Trace of Precipitation, MM = Missing Value Source: NWS Daily Summary

Daily Weather History Graph

Daily Weather History Graph

Search for Another Location

Airport or City:

Trip Planner

Search our weather history database for the weather conditions in past years. The results will help you decide how hot, cold, wet, or windy it might be!

Date:

Astronomy

Jan. 09, 2013 Rise Set
Actual Time 7:10 AM PST 5:09 PM PST
Civil Twilight 6:42 AM PST 5:37 PM PST
Nautical Twilight 6:11 AM PST 6:08 PM PST
Astronomical Twilight 5:40 AM PST 6:38 PM PST
Moon 4:54 AM PST (1/9) 3:16 PM PST (1/9)
Length of Visible Light 10h 54m
Length of Day
9h 59m
Waning Crescent, 6% of the Moon is Illuminated
Jan 9
Waning Crescent
Jan 11
New
Jan 18
First Quarter
Jan 26
Full
Feb 3
Last Quarter

Hourly Weather History & Observations

Time (PST) Temp. Windchill Dew Point Humidity Pressure Visibility Wind Dir Wind Speed Gust Speed Precip Events Conditions
12:55 AM 48.0 °F - 41.0 °F 77% 30.08 in 10.0 mi ESE 10.4 mph - N/A   Clear
1:55 AM 46.9 °F - 39.9 °F 77% 30.09 in 10.0 mi ESE 9.2 mph - N/A   Clear
2:55 AM 46.9 °F - 39.9 °F 77% 30.09 in 10.0 mi ESE 8.1 mph - N/A   Clear
3:55 AM 48.0 °F - 39.0 °F 71% 30.07 in 10.0 mi ESE 8.1 mph - N/A   Clear
4:55 AM 46.0 °F 42.5 °F 39.0 °F 76% 30.07 in 10.0 mi SE 6.9 mph - N/A   Clear
5:55 AM 45.0 °F 40.1 °F 37.9 °F 76% 30.07 in 10.0 mi ESE 9.2 mph - N/A   Clear
6:55 AM 45.0 °F 43.5 °F 37.9 °F 76% 30.07 in 10.0 mi East 3.5 mph - N/A   Mostly Cloudy
7:55 AM 44.1 °F - 37.9 °F 79% 30.08 in 10.0 mi Calm Calm - N/A   Overcast
8:55 AM 53.1 °F - 41.0 °F 64% 30.09 in 10.0 mi Calm Calm - N/A   Overcast
9:55 AM 55.0 °F - 45.0 °F 69% 30.10 in 6.0 mi Variable 4.6 mph - N/A   Overcast
10:53 AM 53.6 °F - 50.0 °F 88% 30.11 in 6.0 mi WSW 11.5 mph - N/A   Overcast
10:55 AM 54.0 °F - 50.0 °F 86% 30.08 in 6.0 mi SW 10.4 mph - N/A   Overcast
11:55 AM 53.1 °F - 50.0 °F 89% 30.08 in 6.0 mi West 10.4 mph - N/A   Overcast
12:35 PM 55.4 °F - 48.2 °F 77% 30.08 in 6.0 mi West 10.4 mph - N/A   Overcast
12:55 PM 55.0 °F - 48.9 °F 80% 30.06 in 5.0 mi West 8.1 mph - N/A   Overcast
1:55 PM 55.0 °F - 48.0 °F 77% 30.03 in 6.0 mi West 8.1 mph - N/A   Overcast
2:28 PM 55.4 °F - 48.2 °F 77% 30.06 in 6.0 mi West 6.9 mph - N/A   Overcast
2:55 PM 55.0 °F - 48.0 °F 77% 30.04 in 6.0 mi West 8.1 mph - N/A   Overcast
3:14 PM 53.6 °F - 48.2 °F 82% 30.07 in 6.0 mi West 8.1 mph - N/A   Overcast
3:55 PM 54.0 °F - 48.9 °F 83% 30.04 in 6.0 mi West 6.9 mph - N/A   Overcast
4:55 PM 53.1 °F - 48.9 °F 86% 30.04 in 6.0 mi WNW 5.8 mph - N/A   Overcast
5:55 PM 51.1 °F - 48.0 °F 89% 30.04 in 10.0 mi NW 4.6 mph - N/A   Overcast
6:55 PM 50.0 °F - 48.0 °F 93% 30.04 in 10.0 mi NW 3.5 mph - N/A   Overcast
7:38 PM 51.8 °F - 48.2 °F 88% 30.06 in 10.0 mi NW 5.8 mph - N/A   Overcast
7:55 PM 50.0 °F - 48.9 °F 96% 30.04 in 3.0 mi NNW 9.2 mph - 0.00 in Rain Light Rain
8:17 PM 50.0 °F - 48.2 °F 94% 30.06 in 4.0 mi North 5.8 mph - 0.00 in   Overcast
8:53 PM 50.0 °F - 48.2 °F 94% 30.07 in 9.0 mi North 4.6 mph - 0.00 in   Overcast
8:55 PM 50.0 °F - 48.0 °F 93% 30.04 in 9.0 mi North 4.6 mph - 0.00 in   Overcast
9:34 PM 50.0 °F - 46.4 °F 87% 30.07 in 7.0 mi Calm Calm - N/A   Mostly Cloudy
9:55 PM 48.9 °F - 48.0 °F 97% 30.05 in 3.0 mi NW 4.6 mph - 0.01 in Rain Light Rain
10:00 PM 50.0 °F - 48.2 °F 94% 30.08 in 2.0 mi NW 17.3 mph 20.7 mph 0.01 in Rain Rain
10:04 PM 50.0 °F - 48.2 °F 94% 30.08 in 2.0 mi NW 20.7 mph 24.2 mph 0.01 in Rain Light Rain
10:07 PM 50.0 °F - 48.2 °F 94% 30.08 in 3.0 mi NNW 17.3 mph - 0.01 in Rain Light Rain
10:14 PM 50.0 °F - 48.2 °F 94% 30.08 in 9.0 mi NW 17.3 mph - 0.01 in   Overcast
10:36 PM 50.0 °F - 48.2 °F 94% 30.08 in 10.0 mi NW 21.9 mph 26.5 mph 0.01 in   Overcast
10:55 PM 50.0 °F - 46.9 °F 89% 30.06 in 10.0 mi NW 23.0 mph - 0.01 in   Overcast
11:26 PM 50.0 °F - 44.6 °F 82% 30.09 in 10.0 mi NNW 23.0 mph 29.9 mph N/A   Overcast
11:55 PM 48.9 °F - 43.0 °F 80% 30.07 in 10.0 mi NNW 20.7 mph - N/A   Overcast